COSMOS 2491 DEB, 45031

Orbit data source: Space-Track

COSMOS 2491 DEB, 45031 is space debris in LEO originally from a launch on Wed, 25 Dec 2013 UTC launched from the Plesetsk Missile And Space Complex (PKMTR). Debris objects in space refer to the collection of defunct objects orbiting the Earth. Examples of debris include non-operational satellites, rocket bodies, and fragments generated from explosions, collisions, or faulty payload assembly.

Loading next visibility...
Identifier
45031, 2013-076U
Orbit
LEO
Country
Flag of CISCIS
Related business
Manufacturer
TsNIIKhM
Mission
Spacecraft
Bus & Motor
Unknown
Mass
Unknown
Launch date (UTC)
2013-12-25 (13 years ago)
Launch vehicle
Unknown
Launch site
Plesetsk Missile And Space Complex (PKMTR)
Object type
Payload
Rocket body
Debris
Shape & HBR
Unknown shape, 0.1 m
Radar Cross Section
Medium (>0.1 m² and <1 m²)

Expand to show TLE details & history
Last TLE update: 4 months ago

TLE from 4 months ago
0 COSMOS 2491 DEB
1 45031U 13076U   26093.44149106 -.00007740  00000-0 -42277-1 0  9992
2 45031  82.3920 166.2723 0096865 349.0422  10.8558 12.62860212286827
Epoch: 2026-04-03T10:35Z
TLE epoch observation values (Epoch: 2026-04-03T10:35:44.827Z)
Latitude
-0.00002°
Longitude
175.55995°
Altitude
1,339.8 km
Speed
7.222 km/s
True Right ascension
11h 05m 05s
True Declination
0° 00' 00"
Sunlit
Object was in full shadow at epoch
Visualization orbit readout
Latitude
Unknown
Longitude
Unknown
Altitude
Unknown
Speed
Unknown
Apparent Right ascension
Unknown
Apparent Declination
Unknown
Sunlit
N/A
Visualization observer readout
Local Sidereal Time
05:31:04
Azimuth
Unknown
Elevation
Unknown
Doppler factor
Unknown
Orbital elements
Apogee altitude
1,483.913 km
Perigee altitude
1,333.063 km
Semi-major axis
7,786.625 km
Eccentricity
0.00969
Inclination
82.392°
RAAN
166.2723°
Arg. of periapsis
349.0422°
True anomaly
11.06737°
Mean anomaly
10.8558°
Eccentric anomaly
10.96133°
Mean motion
3.15878 °/min
Orbital period
113.97 mins
BSTAR
-0.042277
Loading maneuver chart data...
Computing Atmospheric mass density...
Loading historical data...
Loading historical data...
Loading historical data...
Loading historical data...
Loading historical data...
Loading historical data...
Loading historical data...

Documentation

Showing up to 5 results
|